Tracking 20621 objects as of 29-Mar-2020
HD Live streaming from Space Station
objects crossing your sky now

SATCOM 3 DEB

Track SATCOM 3 DEB now!


NORAD ID: 29003
Int'l Code: 1979-101F
Perigee: 8,112.5 km
Apogee: 35,552.7 km
Inclination: 8.2 °
Period: 785.6 minutes
Semi major axis: 28203 km
RCS: 0.1589 m2 (medium)
Launch date: December 7, 1979
Source: United States (US)
Launch site: AIR FORCE EASTERN TEST RANGE (AFETR)

Note: This is SATELLITE DEBRIS
aabbcc
Your satellite tracking list
Your tracking list is empty




NASA's NSSDC Master Catalog

Two Line Element Set (TLE):
1 29003U 79101F   20086.68418451 -.00000161  00000-0  00000+0 0  9993
2 29003   8.2416 279.4410 4864655 100.9973 299.5906  1.83293141 94691
Source of the keplerian elements: AFSPC